Change the Weather History Date:

Saturday, October 20, 2012

  Actual Average (KHOT) Record (KHOT)
Temperature  
Mean Temperature 58 °F -  
Max Temperature 80 °F 73 °F 89 °F (1969)
Min Temperature 37 °F 47 °F 29 °F (1989)
Degree Days  
Heating Degree Days 6    
Growing Degree Days 8 (Base 50)    
Moisture  
Dew Point 43 °F    
Average Humidity 62    
Maximum Humidity 100    
Minimum Humidity 26    
Precipitation  
Precipitation 0.00 in - - ()
Sea Level Pressure  
Sea Level Pressure 29.86 in    
Wind  
Wind Speed 1 mph (SE)    
Max Wind Speed 7 mph    
Max Gust Speed -    
Visibility 10 miles    
Events      
Averages and records for this station are not official NWS values.
T = Trace of Precipitation, MM = Missing Value Source: NWS Daily Summary

Daily Weather History Graph

Daily Weather History Graph

Search for Another Location

Airport or City:

Trip Planner

Search our weather history database for the weather conditions in past years. The results will help you decide how hot, cold, wet, or windy it might be!

Date:

Astronomy

Oct. 20, 2012 Rise Set
Actual Time 7:24 AM CDT 6:33 PM CDT
Civil Twilight 6:58 AM CDT 6:58 PM CDT
Nautical Twilight 6:29 AM CDT 7:27 PM CDT
Astronomical Twilight 6:00 AM CDT 7:57 PM CDT
Moon 12:53 PM CDT (10/20) 11:26 PM CDT (10/20)
Length of Visible Light 11h 59m
Length of Day
11h 08m
Waxing Crescent, 34% of the Moon is Illuminated
Oct 20
Waxing Crescent
Oct 21
First Quarter
Oct 29
Full
Nov 6
Last Quarter
Nov 13
New

Hourly Weather History & Observations

Time (CDT) Temp. Dew Point Humidity Pressure Visibility Wind Dir Wind Speed Gust Speed Precip Events Conditions
12:53 AM 41.0 °F 39.9 °F 96% 29.88 in 10.0 mi Calm Calm - N/A   Clear
1:53 AM 39.9 °F 39.0 °F 97% 29.87 in 10.0 mi Calm Calm - N/A   Clear
2:53 AM 39.0 °F 37.9 °F 96% 29.88 in 10.0 mi Calm Calm - N/A   Clear
3:53 AM 39.0 °F 37.9 °F 96% 29.87 in 10.0 mi Calm Calm - N/A   Clear
4:53 AM 37.0 °F 37.0 °F 100% 29.88 in 10.0 mi Calm Calm - N/A   Clear
5:53 AM 37.9 °F 36.0 °F 93% 29.89 in 10.0 mi Calm Calm - N/A   Clear
6:53 AM 37.0 °F 36.0 °F 96% 29.91 in 10.0 mi Calm Calm - N/A   Clear
7:53 AM 37.0 °F 36.0 °F 96% 29.92 in 10.0 mi Calm Calm - N/A   Clear
8:53 AM 44.1 °F 41.0 °F 89% 29.93 in 10.0 mi Calm Calm - N/A   Clear
9:53 AM 53.1 °F 45.0 °F 74% 29.93 in 10.0 mi Calm Calm - N/A   Clear
10:53 AM 62.1 °F 46.0 °F 56% 29.91 in 10.0 mi Calm Calm - N/A   Clear
11:53 AM 73.0 °F 43.0 °F 34% 29.88 in 10.0 mi Calm Calm - N/A   Clear
12:53 PM 75.9 °F 39.9 °F 27% 29.87 in 10.0 mi Variable 6.9 mph - N/A   Clear
1:53 PM 79.0 °F 41.0 °F 26% 29.83 in 10.0 mi Variable 5.8 mph - N/A   Clear
2:53 PM 80.1 °F 44.1 °F 28% 29.82 in 10.0 mi Calm Calm - N/A   Clear
3:53 PM 80.1 °F 46.0 °F 30% 29.81 in 10.0 mi Variable 3.5 mph - N/A   Clear
4:53 PM 78.1 °F 46.0 °F 32% 29.81 in 10.0 mi Variable 4.6 mph - N/A   Clear
5:53 PM 75.0 °F 46.9 °F 37% 29.80 in 10.0 mi Calm Calm - N/A   Clear
6:53 PM 66.0 °F 51.1 °F 59% 29.81 in 10.0 mi SSE 3.5 mph - N/A   Clear
7:53 PM 69.1 °F 46.9 °F 45% 29.82 in 10.0 mi SE 3.5 mph - N/A   Clear
8:53 PM 69.1 °F 46.0 °F 44% 29.83 in 10.0 mi Calm Calm - N/A   Clear
9:53 PM 70.0 °F 45.0 °F 41% 29.85 in 10.0 mi Calm Calm - N/A   Mostly Cloudy
10:53 PM 71.1 °F 46.0 °F 41% 29.85 in 10.0 mi Variable 3.5 mph - N/A   Overcast
11:53 PM 70.0 °F 46.9 °F 44% 29.84 in 10.0 mi Calm Calm - N/A   Mostly Cloudy